Flag for Pakistan Weather past 2 weeks in Peshawar, Pakistan

Now
57 °F

Broken clouds.


Feels Like: 57 °F
Forecast: 40 / 53 °F
Wind: No wind

Location: Peshawar Airport

Current Time: Jan 26, 2015 at 6:06:40 PM

Latest Report: Jan 26, 2015 at 5:00 PM


Visibility: 2 mi

Pressure: 30.09 "Hg

Humidity: 63%

Dew point: 45 °F

Location of PeshawarLocation

Historic Weather in Peshawar — Graph

°F

Peshawar temperature yesterday

Maximum temperature yesterday: 64 °F (at 3:00 PM)
Minimum temperature yesterday: 45 °F (at 4:59 AM)
Average temperature yesterday: 54 °F

Past Weeks' High & Low Weather Summary

 TemperatureHumidityPressure
High72 °F (Jan 17, 3:00 PM)100% (Jan 21, 6:00 PM)30.27 "Hg (Jan 21, 6:00 PM)
Low41 °F (Jan 17, 7:00 AM)27% (Jan 17, 3:00 PM)29.89 "Hg (Jan 19, 3:00 PM)
Average53 °F68%30.12 "Hg
* Reported Jan 11 5:00 PM — Jan 26 5:00 PM, Peshawar, Weather by CustomWeather, © 2014

Note: Actual official high and low records may vary slightly from our data, if they occured in-between our weather recording intervals... More about our weather records

Advertising

Peshawar weather history for previous 24 hours

 ConditionsComfort  
Time TempWeatherWind HumidityBarometerVisibility
5:00 PM
Jan 26
57 °FBroken clouds.No wind63%30.09 "Hg2 mi
4:00 PM57 °FRefreshingly cool.N/A59%30.12 "HgN/A
3:00 PM57 °FCool.N/A63%30.12 "HgN/A
2:00 PM59 °FRefreshingly cool.N/A59%30.15 "HgN/A
1:00 PM59 °FRefreshingly cool.N/A59%30.18 "HgN/A
12:00 PM54 °FCool.N/A72%30.21 "HgN/A
11:00 AM52 °FCool.N/A72%30.21 "HgN/A
10:00 AM52 °FCool.N/A72%30.21 "HgN/A
9:00 AM50 °FCool.N/A71%30.18 "HgN/A
8:00 AM46 °FPartly sunny.9 mph82%30.18 "Hg2 mi
7:00 AM45 °FPassing clouds.No wind81%30.15 "Hg2 mi
6:00 AM45 °FPassing clouds.No wind81%30.12 "Hg2 mi
5:00 AM45 °FPassing clouds.5 mph81%30.12 "Hg2 mi
4:00 AM46 °FHaze.No wind87%30.12 "Hg2 mi
3:00 AM46 °FHaze.7 mph87%30.12 "Hg2 mi
2:00 AM50 °FCool.N/A71%30.09 "HgN/A
1:00 AM50 °FPassing clouds.No wind67%30.09 "Hg2 mi
12:00 AM52 °FCool.N/A62%30.09 "HgN/A
11:00 PM
Jan 25
52 °FCool.N/A62%30.12 "HgN/A
10:00 PM52 °FCool.N/A67%30.12 "HgN/A
9:00 PM54 °FCool.N/A63%30.12 "HgN/A
8:00 PM54 °FCool.N/A63%30.12 "HgN/A
7:00 PM55 °FRefreshingly cool.N/A51%30.09 "HgN/A
6:00 PM57 °FPassing clouds.16 mph48%30.09 "Hg2 mi
Weather by CustomWeather, © 2014

See weather overviewHow to use our weather pages